SDM6442 USRR-ULLI

Flight info

Callsign SDM6442
Flight time 3h 6m
Altitude 34000
Route N0460F340 OGIKA M59 SORLI P989 NETLU T756 ODNUS L870 ADLIN T242 AMDEN P979 BEPOL
Aircraft A319/M-VGDW/C

Departure

Time 2026-04-26 16:22
Airport Surgut International Airport (USRR)

Arrival

Time 2026-04-26 19:28
Airport Pulkovo Airport (ULLI)
Time Latitude Longitude Altitude Speed Heading
2026-04-26 16:03 61.34087 73.40702 208 ft 0 kts 179°
2026-04-26 16:13 61.34088 73.40702 208 ft 2 kts 179°
2026-04-26 16:13 61.34105 73.40701 216 ft 2 kts 179°
2026-04-26 16:14 61.34121 73.40701 210 ft 2 kts 179°
2026-04-26 16:14 61.34137 73.40700 215 ft 2 kts 180°
2026-04-26 16:14 61.34168 73.40712 216 ft 2 kts 212°
2026-04-26 16:15 61.34180 73.40735 214 ft 2 kts 260°
2026-04-26 16:15 61.34181 73.40747 217 ft 0 kts 271°
2026-04-26 16:17 61.34181 73.40746 208 ft 1 kts 270°
2026-04-26 16:17 61.34181 73.40669 208 ft 13 kts 270°
2026-04-26 16:18 61.34181 73.40493 208 ft 10 kts 269°
2026-04-26 16:18 61.34180 73.40269 208 ft 15 kts 270°
2026-04-26 16:19 61.34178 73.39778 208 ft 14 kts 269°
2026-04-26 16:19 61.34177 73.39607 207 ft 10 kts 269°
2026-04-26 16:19 61.34177 73.39401 207 ft 6 kts 270°
2026-04-26 16:20 61.34176 73.39314 207 ft 10 kts 269°
2026-04-26 16:20 61.34176 73.38970 207 ft 5 kts 279°
2026-04-26 16:20 61.34242 73.38887 212 ft 17 kts
2026-04-26 16:21 61.34352 73.38899 200 ft 11 kts
2026-04-26 16:21 61.34385 73.39008 199 ft 7 kts 77°
2026-04-26 16:21 61.34385 73.39130 211 ft 27 kts 91°
2026-04-26 16:21 61.34388 73.40030 202 ft 96 kts 89°
2026-04-26 16:22 61.34394 73.41822 212 ft 148 kts 90°
2026-04-26 16:22 61.34392 73.44000 619 ft 146 kts 89°
2026-04-26 16:22 61.34402 73.46141 1035 ft 149 kts 85°
2026-04-26 16:22 61.34563 73.48310 1504 ft 150 kts 76°
2026-04-26 16:23 61.34899 73.50358 1910 ft 156 kts 66°
2026-04-26 16:23 61.35467 73.52472 2081 ft 175 kts 54°
2026-04-26 16:23 61.36325 73.54509 2310 ft 200 kts 41°
2026-04-26 16:23 61.37538 73.56297 2594 ft 227 kts 27°
2026-04-26 16:24 61.39090 73.57502 3036 ft 250 kts 11°
2026-04-26 16:24 61.40828 73.57753 3790 ft 258 kts 354°
2026-04-26 16:24 61.42603 73.56924 4718 ft 260 kts 337°
2026-04-26 16:24 61.44169 73.55046 5648 ft 262 kts 320°
2026-04-26 16:25 61.45387 73.52283 6512 ft 264 kts 303°
2026-04-26 16:25 61.46173 73.48751 7380 ft 267 kts 285°
2026-04-26 16:25 61.46505 73.44954 8235 ft 270 kts 278°
2026-04-26 16:25 61.46796 73.41006 9106 ft 274 kts 279°
2026-04-26 16:26 61.47196 73.37098 9924 ft 277 kts 283°
2026-04-26 16:26 61.47536 73.34529 10420 ft 280 kts 285°
2026-04-26 16:26 61.48397 73.29314 11411 ft 287 kts 289°
2026-04-26 16:26 61.49160 73.25416 12132 ft 293 kts 291°
2026-04-26 16:27 61.50030 73.21411 12491 ft 313 kts 293°
2026-04-26 16:27 61.51056 73.17203 12669 ft 337 kts 296°
2026-04-26 16:27 61.52259 73.12838 13059 ft 351 kts 300°
2026-04-26 16:27 61.53607 73.08502 13648 ft 359 kts 302°
2026-04-26 16:28 61.55087 73.04241 14255 ft 365 kts 304°
2026-04-26 16:28 61.56692 73.00063 14893 ft 369 kts 306°
2026-04-26 16:28 61.58331 72.95894 15532 ft 373 kts 305°
2026-04-26 16:28 61.59999 72.91673 16153 ft 377 kts 304°
2026-04-26 16:29 61.61680 72.87420 16771 ft 381 kts 304°
2026-04-26 16:29 61.63375 72.83122 17394 ft 384 kts 303°
2026-04-26 16:29 61.65087 72.78767 17975 ft 388 kts 303°
2026-04-26 16:29 61.66818 72.74354 18494 ft 392 kts 303°
2026-04-26 16:30 61.68555 72.69913 19129 ft 394 kts 304°
2026-04-26 16:30 61.70296 72.65446 19684 ft 397 kts 303°
2026-04-26 16:30 61.72057 72.60913 20186 ft 401 kts 303°
2026-04-26 16:30 61.73830 72.56327 20645 ft 407 kts 303°
2026-04-26 16:31 61.75636 72.51650 21091 ft 413 kts 302°
2026-04-26 16:31 61.77344 72.46786 21547 ft 412 kts 295°
2026-04-26 16:31 61.78688 72.41492 22006 ft 408 kts 285°
2026-04-26 16:31 61.79652 72.35888 22476 ft 404 kts 278°
2026-04-26 16:32 61.80489 72.30200 22960 ft 407 kts 277°
2026-04-26 16:32 61.81050 72.26401 23252 ft 410 kts 277°
2026-04-26 16:32 61.82193 72.18672 23773 ft 413 kts 277°
2026-04-26 16:32 61.83052 72.12860 24160 ft 416 kts 278°
2026-04-26 16:33 61.83918 72.06991 24533 ft 418 kts 278°
2026-04-26 16:33 61.84779 72.01104 24913 ft 420 kts 278°
2026-04-26 16:33 61.85640 71.95180 25292 ft 423 kts 278°
2026-04-26 16:33 61.86507 71.89200 25658 ft 425 kts 278°
2026-04-26 16:34 61.87374 71.83203 26064 ft 427 kts 278°
2026-04-26 16:34 61.88245 71.77167 26421 ft 430 kts 278°
2026-04-26 16:34 61.89121 71.71070 26768 ft 433 kts 278°
2026-04-26 16:34 61.89997 71.64957 27128 ft 435 kts 279°
2026-04-26 16:35 61.90877 71.58791 27515 ft 437 kts 279°
2026-04-26 16:35 61.91756 71.52615 27858 ft 439 kts 279°
2026-04-26 16:35 61.92635 71.46405 28183 ft 441 kts 279°
2026-04-26 16:35 61.93518 71.40142 28505 ft 443 kts 279°
2026-04-26 16:36 61.94404 71.33869 28815 ft 445 kts 279°
2026-04-26 16:36 61.95299 71.27544 29125 ft 447 kts 279°
2026-04-26 16:36 61.96193 71.21208 29416 ft 449 kts 279°
2026-04-26 16:36 61.97086 71.14838 29706 ft 451 kts 279°
2026-04-26 16:37 61.97981 71.08416 29939 ft 453 kts 279°
2026-04-26 16:37 61.98870 71.01985 30171 ft 455 kts 279°
2026-04-26 16:37 61.99748 70.95529 30477 ft 455 kts 279°
2026-04-26 16:37 62.00297 70.91234 30697 ft 453 kts 279°
2026-04-26 16:38 62.01319 70.82544 31123 ft 451 kts 278°
2026-04-26 16:38 62.02037 70.76035 31448 ft 450 kts 277°
2026-04-26 16:38 62.02736 70.69553 31767 ft 449 kts 277°
2026-04-26 16:38 62.03435 70.63081 32089 ft 449 kts 278°
2026-04-26 16:39 62.04144 70.56600 32421 ft 448 kts 278°
2026-04-26 16:39 62.04856 70.50152 32732 ft 447 kts 278°
2026-04-26 16:39 62.05574 70.43693 33081 ft 447 kts 278°
2026-04-26 16:39 62.06289 70.37262 33385 ft 446 kts 278°
2026-04-26 16:40 62.06997 70.30827 33594 ft 446 kts 278°
2026-04-26 16:40 62.07699 70.24413 33638 ft 443 kts 278°
2026-04-26 16:40 62.09090 70.11635 33649 ft 441 kts 279°
2026-04-26 16:41 62.10466 69.98857 33633 ft 442 kts 279°
2026-04-26 16:41 62.11833 69.86064 33630 ft 442 kts 279°
2026-04-26 16:42 62.13187 69.73260 33632 ft 441 kts 278°
2026-04-26 16:42 62.14525 69.60472 33627 ft 441 kts 278°
2026-04-26 16:43 62.15850 69.47656 33626 ft 441 kts 278°
2026-04-26 16:43 62.17166 69.34836 33624 ft 441 kts 278°
2026-04-26 16:44 62.18469 69.22033 33661 ft 441 kts 279°
2026-04-26 16:44 62.19543 69.11354 33646 ft 441 kts 279°
2026-04-26 16:45 62.20821 68.98504 33632 ft 441 kts 279°
2026-04-26 16:45 62.22103 68.85560 33627 ft 441 kts 278°
2026-04-26 16:46 62.23351 68.72798 33623 ft 441 kts 278°
2026-04-26 16:46 62.24588 68.59915 33632 ft 441 kts 278°
2026-04-26 16:47 62.25819 68.47022 33625 ft 441 kts 278°
2026-04-26 16:47 62.27057 68.34057 33636 ft 441 kts 279°
2026-04-26 16:48 62.28267 68.21146 33639 ft 441 kts 278°
2026-04-26 16:48 62.29456 68.08224 33646 ft 441 kts 278°
2026-04-26 16:49 62.30642 67.95295 33660 ft 441 kts 278°
2026-04-26 16:49 62.31812 67.82367 33653 ft 441 kts 278°
2026-04-26 16:50 62.32968 67.69395 33653 ft 442 kts 278°
2026-04-26 16:50 62.34126 67.56411 33649 ft 442 kts 278°
2026-04-26 16:51 62.35271 67.43408 33653 ft 442 kts 278°
2026-04-26 16:51 62.36398 67.30383 33652 ft 442 kts 278°
2026-04-26 16:52 62.37322 67.19556 33649 ft 442 kts 278°
2026-04-26 16:52 62.38610 67.04310 33651 ft 443 kts 278°
2026-04-26 16:53 62.39698 66.91244 33652 ft 443 kts 278°
2026-04-26 16:53 62.40780 66.78193 33652 ft 443 kts 278°
2026-04-26 16:54 62.41863 66.65112 33664 ft 443 kts 278°
2026-04-26 16:54 62.42927 66.52014 33665 ft 443 kts 278°
2026-04-26 16:55 62.43959 66.38896 33663 ft 443 kts 277°
2026-04-26 16:55 62.44983 66.25768 33662 ft 443 kts 277°
2026-04-26 16:56 62.46501 66.06093 33663 ft 443 kts 277°
2026-04-26 16:57 62.46922 65.92854 33665 ft 441 kts 270°
2026-04-26 16:57 62.47268 65.72974 33672 ft 441 kts 271°
2026-04-26 16:58 62.47448 65.61946 33673 ft 441 kts 271°
2026-04-26 16:59 62.47787 65.39849 33673 ft 441 kts 270°
2026-04-26 17:00 62.48148 65.13338 33686 ft 441 kts 270°
2026-04-26 17:00 62.48381 64.93458 33686 ft 441 kts 271°
2026-04-26 17:01 62.48585 64.80208 33695 ft 441 kts 271°
2026-04-26 17:01 62.48827 64.66967 33693 ft 440 kts 271°
2026-04-26 17:02 62.49051 64.53751 33692 ft 440 kts 271°
2026-04-26 17:02 62.49247 64.40513 33697 ft 440 kts 271°
2026-04-26 17:03 62.49430 64.27275 33693 ft 440 kts 271°
2026-04-26 17:03 62.49594 64.14060 33687 ft 440 kts 271°
2026-04-26 17:04 62.49750 64.00827 33692 ft 440 kts 271°
2026-04-26 17:04 62.49899 63.87598 33693 ft 440 kts 271°
2026-04-26 17:05 62.50036 63.74372 33703 ft 439 kts 271°
2026-04-26 17:05 62.50161 63.61149 33713 ft 439 kts 271°
2026-04-26 17:06 62.50272 63.47948 33711 ft 439 kts 271°
2026-04-26 17:06 62.50366 63.34727 33698 ft 439 kts 271°
2026-04-26 17:07 62.50445 63.21507 33700 ft 439 kts 271°
2026-04-26 17:07 62.50514 63.08295 33707 ft 439 kts 271°
2026-04-26 17:08 62.50574 62.95108 33706 ft 439 kts 271°
2026-04-26 17:08 62.50615 62.81900 33711 ft 439 kts 270°
2026-04-26 17:09 62.50641 62.70846 33711 ft 439 kts 270°
2026-04-26 17:09 62.50666 62.55490 33710 ft 439 kts 270°
2026-04-26 17:10 62.50675 62.42312 33714 ft 438 kts 270°
2026-04-26 17:10 62.50671 62.29123 33716 ft 438 kts 270°
2026-04-26 17:11 62.50651 62.15941 33722 ft 438 kts 270°
2026-04-26 17:11 62.50628 62.02766 33722 ft 438 kts 270°
2026-04-26 17:12 62.50565 61.83019 33730 ft 438 kts 270°
2026-04-26 17:13 62.50466 61.63277 33718 ft 437 kts 270°
2026-04-26 17:14 62.50345 61.43550 33732 ft 437 kts 270°
2026-04-26 17:14 62.50193 61.23840 33734 ft 437 kts 270°
2026-04-26 17:15 62.50020 61.04055 33742 ft 436 kts 269°
2026-04-26 17:16 62.49883 60.91008 33741 ft 436 kts 269°
2026-04-26 17:16 62.49734 60.77879 33741 ft 436 kts 269°
2026-04-26 17:17 62.49574 60.64686 33744 ft 436 kts 269°
2026-04-26 17:17 62.49400 60.51557 33765 ft 436 kts 269°
2026-04-26 17:18 62.49214 60.38427 33755 ft 437 kts 269°
2026-04-26 17:18 62.49027 60.25384 33753 ft 437 kts 269°
2026-04-26 17:19 62.48714 60.05606 33766 ft 437 kts 269°
2026-04-26 17:19 62.48487 59.92564 33770 ft 436 kts 269°
2026-04-26 17:20 62.48325 59.83799 33784 ft 436 kts 268°
2026-04-26 17:20 62.47988 59.66304 33785 ft 436 kts 268°
2026-04-26 17:21 62.47776 59.55418 33803 ft 435 kts 269°
2026-04-26 17:21 62.47733 59.42361 33798 ft 435 kts 271°
2026-04-26 17:22 62.47792 59.29296 33799 ft 434 kts 271°
2026-04-26 17:22 62.47805 59.16235 33799 ft 434 kts 270°
2026-04-26 17:23 62.47762 59.03204 33811 ft 434 kts 270°
2026-04-26 17:23 62.47700 58.90166 33812 ft 433 kts 270°
2026-04-26 17:24 62.47632 58.77138 33805 ft 433 kts 270°
2026-04-26 17:24 62.47556 58.64109 33801 ft 433 kts 270°
2026-04-26 17:25 62.47465 58.51074 33809 ft 434 kts 270°
2026-04-26 17:25 62.47362 58.38052 33810 ft 434 kts 269°
2026-04-26 17:26 62.47245 58.24997 33810 ft 434 kts 269°
2026-04-26 17:26 62.47118 58.11934 33815 ft 435 kts 269°
2026-04-26 17:27 62.46980 57.98890 33817 ft 435 kts 269°
2026-04-26 17:27 62.46832 57.85828 33820 ft 434 kts 269°
2026-04-26 17:28 62.46666 57.72775 33819 ft 434 kts 269°
2026-04-26 17:28 62.46485 57.59738 33815 ft 434 kts 269°
2026-04-26 17:29 62.46333 57.48829 33819 ft 434 kts 269°
2026-04-26 17:29 62.46105 57.33699 33821 ft 433 kts 268°
2026-04-26 17:30 62.45888 57.20685 33819 ft 433 kts 268°
2026-04-26 17:30 62.45666 57.07680 33818 ft 433 kts 268°
2026-04-26 17:31 62.45437 56.94682 33812 ft 433 kts 268°
2026-04-26 17:31 62.45191 56.81626 33813 ft 433 kts 268°
2026-04-26 17:32 62.44935 56.68726 33812 ft 433 kts 268°
2026-04-26 17:32 62.44665 56.55747 33811 ft 432 kts 268°
2026-04-26 17:33 62.44372 56.42720 33814 ft 432 kts 268°
2026-04-26 17:34 62.43928 56.23375 33818 ft 431 kts 267°
2026-04-26 17:34 62.43617 56.10372 33837 ft 431 kts 267°
2026-04-26 17:35 62.43287 55.97438 33827 ft 431 kts 267°
2026-04-26 17:35 62.42947 55.84504 33821 ft 431 kts 267°
2026-04-26 17:36 62.42600 55.71574 33808 ft 431 kts 267°
2026-04-26 17:36 62.42247 55.58671 33811 ft 431 kts 266°
2026-04-26 17:37 62.41875 55.45752 33812 ft 431 kts 266°
2026-04-26 17:37 62.41486 55.32839 33814 ft 431 kts 266°
2026-04-26 17:38 62.40880 55.13488 33818 ft 431 kts 266°
2026-04-26 17:38 62.40485 55.00583 33817 ft 431 kts 266°
2026-04-26 17:39 62.40099 54.87679 33808 ft 431 kts 266°
2026-04-26 17:39 62.39685 54.74775 33810 ft 431 kts 266°
2026-04-26 17:40 62.39326 54.64059 33820 ft 432 kts 266°
2026-04-26 17:40 62.38813 54.48966 33809 ft 432 kts 266°
2026-04-26 17:41 62.38364 54.36033 33807 ft 433 kts 266°
2026-04-26 17:41 62.37898 54.23118 33806 ft 433 kts 265°
2026-04-26 17:42 62.37420 54.10182 33800 ft 433 kts 265°
2026-04-26 17:42 62.36928 53.97258 33808 ft 432 kts 265°
2026-04-26 17:43 62.36433 53.84352 33809 ft 432 kts 265°
2026-04-26 17:43 62.35942 53.71480 33809 ft 432 kts 265°
2026-04-26 17:44 62.35432 53.58599 33808 ft 431 kts 265°
2026-04-26 17:44 62.34904 53.45726 33806 ft 431 kts 265°
2026-04-26 17:45 62.34380 53.32858 33803 ft 431 kts 265°
2026-04-26 17:45 62.33850 53.20021 33814 ft 431 kts 265°
2026-04-26 17:46 62.33302 53.07184 33808 ft 430 kts 264°
2026-04-26 17:46 62.32740 52.94367 33802 ft 430 kts 264°
2026-04-26 17:47 62.32269 52.83735 33799 ft 430 kts 264°
2026-04-26 17:47 62.31592 52.68791 33788 ft 430 kts 264°
2026-04-26 17:48 62.31004 52.56004 33786 ft 429 kts 264°
2026-04-26 17:48 62.30397 52.43227 33773 ft 429 kts 264°
2026-04-26 17:49 62.29780 52.30466 33773 ft 429 kts 264°
2026-04-26 17:49 62.29151 52.17731 33775 ft 428 kts 264°
2026-04-26 17:50 62.28514 52.05037 33773 ft 428 kts 264°
2026-04-26 17:50 62.27861 51.92338 33771 ft 427 kts 264°
2026-04-26 17:51 62.27200 51.79648 33779 ft 428 kts 264°
2026-04-26 17:51 62.26538 51.66973 33760 ft 428 kts 263°
2026-04-26 17:52 62.25857 51.54278 33755 ft 428 kts 263°
2026-04-26 17:52 62.25159 51.41614 33754 ft 427 kts 263°
2026-04-26 17:53 62.24453 51.28981 33755 ft 426 kts 263°
2026-04-26 17:54 62.23372 51.10086 33749 ft 425 kts 263°
2026-04-26 17:54 62.22647 50.97501 33743 ft 425 kts 263°
2026-04-26 17:55 62.21910 50.84952 33739 ft 425 kts 263°
2026-04-26 17:55 62.21146 50.72397 33730 ft 424 kts 262°
2026-04-26 17:56 62.20374 50.59878 33749 ft 423 kts 262°
2026-04-26 17:57 62.18856 50.34951 33757 ft 421 kts 262°
2026-04-26 17:57 62.18090 50.22525 33742 ft 422 kts 262°
2026-04-26 17:58 62.16492 49.97655 33729 ft 422 kts 262°
2026-04-26 17:59 62.15273 49.79023 33727 ft 422 kts 262°
2026-04-26 17:59 62.14443 49.66603 33724 ft 422 kts 262°
2026-04-26 18:00 62.13606 49.54209 33726 ft 422 kts 261°
2026-04-26 18:00 62.12896 49.43804 33726 ft 422 kts 261°
2026-04-26 18:01 62.12042 49.31424 33723 ft 422 kts 261°
2026-04-26 18:01 62.11172 49.19027 33722 ft 422 kts 261°
2026-04-26 18:02 62.10428 49.08744 33713 ft 422 kts 260°
2026-04-26 18:02 62.09238 48.94314 33729 ft 422 kts 259°
2026-04-26 18:03 62.08179 48.82014 33721 ft 422 kts 259°
2026-04-26 18:03 62.07131 48.69688 33716 ft 422 kts 259°
2026-04-26 18:04 62.06082 48.57363 33713 ft 422 kts 259°
2026-04-26 18:05 62.04486 48.38900 33717 ft 422 kts 259°
2026-04-26 18:05 62.03398 48.26597 33717 ft 422 kts 258°
2026-04-26 18:06 62.02309 48.14312 33724 ft 421 kts 258°
2026-04-26 18:06 62.01217 48.02079 33726 ft 421 kts 258°
2026-04-26 18:07 62.00109 47.89852 33717 ft 420 kts 258°
2026-04-26 18:07 61.98992 47.77645 33713 ft 420 kts 258°
2026-04-26 18:08 61.97865 47.65477 33711 ft 420 kts 258°
2026-04-26 18:08 61.96727 47.53301 33710 ft 420 kts 258°
2026-04-26 18:09 61.95586 47.41133 33713 ft 419 kts 257°
2026-04-26 18:09 61.94427 47.28987 33703 ft 419 kts 257°
2026-04-26 18:10 61.93255 47.16880 33699 ft 419 kts 257°
2026-04-26 18:10 61.92082 47.04761 33695 ft 419 kts 257°
2026-04-26 18:11 61.90900 46.92654 33698 ft 419 kts 257°
2026-04-26 18:11 61.89679 46.80573 33689 ft 419 kts 256°
2026-04-26 18:12 61.88388 46.68532 33685 ft 418 kts 256°
2026-04-26 18:12 61.87086 46.56525 33683 ft 419 kts 255°
2026-04-26 18:13 61.85777 46.44501 33675 ft 419 kts 255°
2026-04-26 18:13 61.84461 46.32486 33676 ft 419 kts 255°
2026-04-26 18:14 61.83145 46.20497 33705 ft 419 kts 255°
2026-04-26 18:14 61.81814 46.08472 33667 ft 420 kts 255°
2026-04-26 18:15 61.80468 45.96429 33654 ft 421 kts 255°
2026-04-26 18:15 61.79105 45.84380 33653 ft 421 kts 255°
2026-04-26 18:16 61.77737 45.72335 33659 ft 421 kts 255°
2026-04-26 18:16 61.75655 45.54313 33651 ft 421 kts 254°
2026-04-26 18:17 61.74255 45.42330 33649 ft 421 kts 254°
2026-04-26 18:17 61.72844 45.30340 33652 ft 421 kts 254°
2026-04-26 18:18 61.71425 45.18362 33643 ft 421 kts 254°
2026-04-26 18:18 61.70066 45.06359 33646 ft 422 kts 259°
2026-04-26 18:19 61.69478 44.94030 33645 ft 423 kts 262°
2026-04-26 18:19 61.68905 44.81718 33651 ft 423 kts 262°
2026-04-26 18:20 61.68308 44.69363 33632 ft 424 kts 262°
2026-04-26 18:20 61.67796 44.59004 33624 ft 425 kts 262°
2026-04-26 18:21 61.67084 44.44606 33614 ft 426 kts 262°
2026-04-26 18:21 61.66460 44.32195 33614 ft 426 kts 262°
2026-04-26 18:22 61.65825 44.19789 33615 ft 426 kts 261°
2026-04-26 18:22 61.65174 44.07397 33610 ft 426 kts 261°
2026-04-26 18:23 61.64509 43.95017 33605 ft 426 kts 261°
2026-04-26 18:23 61.63841 43.82659 33593 ft 426 kts 261°
2026-04-26 18:24 61.63158 43.70281 33614 ft 426 kts 261°
2026-04-26 18:24 61.62463 43.57879 33589 ft 427 kts 261°
2026-04-26 18:25 61.61756 43.45462 33579 ft 428 kts 261°
2026-04-26 18:25 61.61033 43.32970 33571 ft 429 kts 261°
2026-04-26 18:26 61.60310 43.20603 33585 ft 429 kts 260°
2026-04-26 18:26 61.59560 43.08146 33582 ft 430 kts 260°
2026-04-26 18:27 61.58796 42.95607 33581 ft 430 kts 260°
2026-04-26 18:27 61.58030 42.83174 33582 ft 430 kts 260°
2026-04-26 18:28 61.57250 42.70725 33577 ft 430 kts 260°
2026-04-26 18:28 61.56463 42.58364 33597 ft 430 kts 260°
2026-04-26 18:29 61.55663 42.45903 33581 ft 431 kts 260°
2026-04-26 18:29 61.54837 42.33369 33572 ft 432 kts 259°
2026-04-26 18:30 61.54028 42.20885 33576 ft 432 kts 260°
2026-04-26 18:30 61.53220 42.08405 33575 ft 432 kts 259°
2026-04-26 18:31 61.52401 41.95927 33574 ft 432 kts 259°
2026-04-26 18:31 61.51562 41.83484 33574 ft 432 kts 259°
2026-04-26 18:32 61.50704 41.71032 33571 ft 432 kts 259°
2026-04-26 18:32 61.49841 41.58572 33571 ft 432 kts 259°
2026-04-26 18:33 61.48966 41.46143 33588 ft 432 kts 259°
2026-04-26 18:33 61.48077 41.33688 33571 ft 433 kts 259°
2026-04-26 18:34 61.47174 41.21247 33559 ft 433 kts 259°
2026-04-26 18:34 61.46271 41.08788 33557 ft 433 kts 259°
2026-04-26 18:35 61.45349 40.96334 33552 ft 433 kts 258°
2026-04-26 18:35 61.44414 40.83887 33552 ft 433 kts 258°
2026-04-26 18:36 61.43472 40.71448 33555 ft 433 kts 257°
2026-04-26 18:36 61.42071 40.59251 33549 ft 432 kts 253°
2026-04-26 18:37 61.40774 40.49188 33544 ft 432 kts 252°
2026-04-26 18:37 61.39175 40.37108 33569 ft 432 kts 252°
2026-04-26 18:38 61.37595 40.25002 33542 ft 433 kts 252°
2026-04-26 18:38 61.36019 40.12860 33541 ft 434 kts 252°
2026-04-26 18:39 61.34437 40.00724 33537 ft 434 kts 252°
2026-04-26 18:39 61.32830 39.88596 33533 ft 434 kts 252°
2026-04-26 18:40 61.31206 39.76490 33540 ft 435 kts 252°
2026-04-26 18:40 61.29574 39.64384 33539 ft 435 kts 252°
2026-04-26 18:41 61.27938 39.52275 33524 ft 435 kts 252°
2026-04-26 18:41 61.26294 39.40183 33525 ft 435 kts 252°
2026-04-26 18:42 61.24629 39.28105 33526 ft 435 kts 252°
2026-04-26 18:42 61.22952 39.16052 33528 ft 435 kts 252°
2026-04-26 18:43 61.21257 39.03910 33527 ft 435 kts 252°
2026-04-26 18:43 61.19567 38.91848 33518 ft 436 kts 252°
2026-04-26 18:44 61.17852 38.79783 33517 ft 437 kts 252°
2026-04-26 18:44 61.16136 38.67792 33515 ft 437 kts 251°
2026-04-26 18:45 61.14388 38.55651 33520 ft 437 kts 251°
2026-04-26 18:45 61.12644 38.43587 33521 ft 438 kts 251°
2026-04-26 18:46 61.10890 38.31527 33515 ft 438 kts 251°
2026-04-26 18:46 61.09116 38.19493 33514 ft 438 kts 251°
2026-04-26 18:47 61.07328 38.07451 33509 ft 439 kts 251°
2026-04-26 18:47 61.05531 37.95397 33510 ft 439 kts 251°
2026-04-26 18:48 61.03726 37.83339 33517 ft 440 kts 251°
2026-04-26 18:48 61.01898 37.71274 33507 ft 441 kts 251°
2026-04-26 18:49 61.00058 37.59201 33508 ft 442 kts 251°
2026-04-26 18:49 60.98215 37.47120 33498 ft 443 kts 251°
2026-04-26 18:50 60.96333 37.34996 33487 ft 445 kts 251°
2026-04-26 18:50 60.94438 37.22860 33505 ft 445 kts 251°
2026-04-26 18:51 60.92540 37.10753 33525 ft 444 kts 251°
2026-04-26 18:51 60.90641 36.98685 33530 ft 443 kts 251°
2026-04-26 18:52 60.89059 36.88693 33521 ft 442 kts 251°
2026-04-26 18:52 60.86817 36.74674 33520 ft 442 kts 250°
2026-04-26 18:53 60.84887 36.62703 33526 ft 442 kts 250°
2026-04-26 18:53 60.82954 36.50731 33511 ft 443 kts 250°
2026-04-26 18:54 60.81000 36.38774 33506 ft 443 kts 250°
2026-04-26 18:54 60.79034 36.26817 33504 ft 443 kts 250°
2026-04-26 18:55 60.77060 36.14866 33500 ft 443 kts 250°
2026-04-26 18:55 60.75071 36.02927 33499 ft 443 kts 250°
2026-04-26 18:56 60.73070 35.91008 33502 ft 444 kts 250°
2026-04-26 18:56 60.71061 35.79079 33504 ft 444 kts 250°
2026-04-26 18:57 60.69379 35.69176 33500 ft 444 kts 250°
2026-04-26 18:57 60.66999 35.55255 33503 ft 445 kts 250°
2026-04-26 18:58 60.64977 35.43340 33506 ft 445 kts 250°
2026-04-26 18:58 60.63028 35.31368 33511 ft 445 kts 251°
2026-04-26 18:59 60.61100 35.19383 33511 ft 445 kts 251°
2026-04-26 18:59 60.59139 35.07433 33513 ft 445 kts 250°
2026-04-26 19:00 60.57154 34.95502 33510 ft 445 kts 250°
2026-04-26 19:00 60.55154 34.83591 33512 ft 445 kts 250°
2026-04-26 19:01 60.53157 34.71691 33511 ft 445 kts 250°
2026-04-26 19:01 60.51141 34.59810 33512 ft 445 kts 250°
2026-04-26 19:02 60.49113 34.47932 33513 ft 445 kts 250°
2026-04-26 19:02 60.47405 34.37996 33515 ft 445 kts 250°
2026-04-26 19:03 60.45024 34.24221 33509 ft 446 kts 250°
2026-04-26 19:03 60.42967 34.12374 33510 ft 446 kts 250°
2026-04-26 19:04 60.40892 34.00539 33502 ft 446 kts 250°
2026-04-26 19:04 60.38801 33.88715 33501 ft 446 kts 250°
2026-04-26 19:05 60.35659 33.70999 33483 ft 447 kts 250°
2026-04-26 19:05 60.34682 33.65517 32715 ft 450 kts 250°
2026-04-26 19:06 60.33802 33.60583 31605 ft 462 kts 249°
2026-04-26 19:06 60.32716 33.54512 31112 ft 455 kts 249°
2026-04-26 19:06 60.31648 33.48560 30552 ft 449 kts 249°
2026-04-26 19:06 60.30584 33.42669 29943 ft 445 kts 249°
2026-04-26 19:07 60.29527 33.36837 29303 ft 441 kts 249°
2026-04-26 19:07 60.28478 33.31078 28699 ft 434 kts 249°
2026-04-26 19:07 60.27441 33.25399 28136 ft 428 kts 249°
2026-04-26 19:07 60.26419 33.19808 27572 ft 423 kts 249°
2026-04-26 19:08 60.25407 33.14280 27015 ft 418 kts 249°
2026-04-26 19:08 60.24401 33.08814 26470 ft 414 kts 249°
2026-04-26 19:08 60.23404 33.03418 25929 ft 410 kts 249°
2026-04-26 19:08 60.22412 32.98075 25409 ft 406 kts 249°
2026-04-26 19:09 60.21427 32.92783 24889 ft 402 kts 250°
2026-04-26 19:09 60.20448 32.87534 24396 ft 399 kts 250°
2026-04-26 19:09 60.19475 32.82325 23896 ft 397 kts 250°
2026-04-26 19:09 60.18507 32.77160 23429 ft 394 kts 250°
2026-04-26 19:10 60.17528 32.71954 22923 ft 392 kts 250°
2026-04-26 19:10 60.16568 32.66864 22444 ft 388 kts 250°
2026-04-26 19:10 60.15616 32.61828 22010 ft 383 kts 250°
2026-04-26 19:10 60.14675 32.56850 21565 ft 379 kts 250°
2026-04-26 19:11 60.13743 32.51932 21122 ft 375 kts 250°
2026-04-26 19:11 60.12821 32.47061 20674 ft 372 kts 250°
2026-04-26 19:11 60.11907 32.42245 20221 ft 368 kts 250°
2026-04-26 19:11 60.10996 32.37474 19772 ft 365 kts 250°
2026-04-26 19:12 60.10088 32.32737 19313 ft 363 kts 250°
2026-04-26 19:12 60.09186 32.28037 18850 ft 361 kts 251°
2026-04-26 19:12 60.08286 32.23359 18384 ft 359 kts 251°
2026-04-26 19:12 60.07385 32.18703 17908 ft 358 kts 252°
2026-04-26 19:13 60.06486 32.14068 17430 ft 356 kts 253°
2026-04-26 19:13 60.05592 32.09457 16969 ft 354 kts 253°
2026-04-26 19:13 60.04705 32.04888 16517 ft 351 kts 252°
2026-04-26 19:13 60.03822 32.00342 16065 ft 349 kts 252°
2026-04-26 19:14 60.02943 31.95830 15616 ft 347 kts 252°
2026-04-26 19:14 60.02363 31.92862 15326 ft 346 kts 252°
2026-04-26 19:14 60.01489 31.88391 14890 ft 344 kts 251°
2026-04-26 19:14 60.00912 31.85444 14601 ft 343 kts 251°
2026-04-26 19:15 59.99749 31.79517 14020 ft 341 kts 251°
2026-04-26 19:15 59.98882 31.75117 13588 ft 340 kts 251°
2026-04-26 19:15 59.98016 31.70739 13124 ft 338 kts 251°
2026-04-26 19:15 59.97155 31.66387 12665 ft 336 kts 251°
2026-04-26 19:16 59.96301 31.62071 12224 ft 333 kts 251°
2026-04-26 19:16 59.95452 31.57796 11780 ft 330 kts 251°
2026-04-26 19:16 59.94607 31.53556 11330 ft 327 kts 250°
2026-04-26 19:16 59.93766 31.49359 10884 ft 325 kts 251°
2026-04-26 19:17 59.92929 31.45189 10430 ft 323 kts 251°
2026-04-26 19:17 59.92096 31.41050 9993 ft 321 kts 251°
2026-04-26 19:17 59.91279 31.36992 9823 ft 310 kts 251°
2026-04-26 19:17 59.90491 31.33084 9688 ft 298 kts 251°
2026-04-26 19:18 59.89727 31.29291 9441 ft 293 kts 251°
2026-04-26 19:18 59.88976 31.25565 9284 ft 289 kts 251°
2026-04-26 19:18 59.88223 31.21836 8800 ft 292 kts 251°
2026-04-26 19:18 59.87466 31.18100 8360 ft 291 kts 251°
2026-04-26 19:19 59.86709 31.14381 7993 ft 287 kts 251°
2026-04-26 19:19 59.85970 31.10767 7821 ft 276 kts 251°
2026-04-26 19:19 59.85261 31.07299 7694 ft 265 kts 252°
2026-04-26 19:19 59.84581 31.03972 7536 ft 255 kts 253°
2026-04-26 19:20 59.83920 31.00738 7271 ft 252 kts 253°
2026-04-26 19:20 59.83479 30.98586 7208 ft 244 kts 253°
2026-04-26 19:20 59.82650 30.94571 7082 ft 233 kts 253°
2026-04-26 19:20 59.82033 30.91568 6880 ft 228 kts 253°
2026-04-26 19:21 59.81451 30.88749 6840 ft 216 kts 254°
2026-04-26 19:21 59.80880 30.85970 6390 ft 218 kts 254°
2026-04-26 19:21 59.80310 30.83191 5929 ft 217 kts 254°
2026-04-26 19:21 59.79748 30.80465 5448 ft 216 kts 254°
2026-04-26 19:22 59.79176 30.77690 4871 ft 218 kts 255°
2026-04-26 19:22 59.78594 30.74885 4418 ft 216 kts 255°
2026-04-26 19:22 59.78027 30.72156 3959 ft 213 kts 255°
2026-04-26 19:22 59.77462 30.69446 3504 ft 212 kts 256°
2026-04-26 19:23 59.76907 30.66777 3035 ft 212 kts 257°
2026-04-26 19:23 59.76338 30.64048 2633 ft 208 kts 258°
2026-04-26 19:23 59.75796 30.61487 2477 ft 194 kts 258°
2026-04-26 19:23 59.75293 30.59105 2476 ft 187 kts 259°
2026-04-26 19:24 59.74977 30.56682 2478 ft 172 kts 279°
2026-04-26 19:24 59.75133 30.54553 2479 ft 147 kts 297°
2026-04-26 19:24 59.75654 30.50810 2457 ft 134 kts 300°
2026-04-26 19:25 59.75910 30.49079 2327 ft 129 kts 301°
2026-04-26 19:25 59.76077 30.47959 2227 ft 127 kts 301°
2026-04-26 19:25 59.76412 30.45735 2007 ft 125 kts 301°
2026-04-26 19:25 59.76659 30.44093 1843 ft 123 kts 300°
2026-04-26 19:26 59.76904 30.42468 1669 ft 122 kts 300°
2026-04-26 19:26 59.77147 30.40855 1499 ft 122 kts 299°
2026-04-26 19:26 59.77388 30.39253 1326 ft 121 kts 298°
2026-04-26 19:26 59.77627 30.37662 1147 ft 120 kts 297°
2026-04-26 19:27 59.77868 30.36059 961 ft 123 kts 295°
2026-04-26 19:27 59.78115 30.34416 773 ft 124 kts 293°
2026-04-26 19:27 59.78355 30.32806 601 ft 121 kts 292°
2026-04-26 19:27 59.78594 30.31211 431 ft 120 kts 292°
2026-04-26 19:28 59.78831 30.29637 257 ft 119 kts 291°
2026-04-26 19:28 59.79068 30.28065 100 ft 117 kts 289°
2026-04-26 19:28 59.79257 30.26796 86 ft 51 kts 285°
2026-04-26 19:28 59.79316 30.26381 81 ft 29 kts 286°
2026-04-26 19:29 59.79372 30.26022 85 ft 25 kts 286°
2026-04-26 19:29 59.79424 30.25667 85 ft 29 kts 286°
2026-04-26 19:29 59.79511 30.25487 84 ft 15 kts 47°
2026-04-26 19:29 59.79499 30.25606 83 ft 8 kts 100°
2026-04-26 19:30 59.79513 30.25695 87 ft 6 kts 74°
2026-04-26 19:30 59.79532 30.25833 86 ft 16 kts 75°
2026-04-26 19:30 59.79539 30.26099 87 ft 23 kts 106°
2026-04-26 19:30 59.79512 30.26278 84 ft 12 kts 106°
2026-04-26 19:31 59.79542 30.26358 83 ft 15 kts 32°
2026-04-26 19:31 59.79663 30.26439 85 ft 18 kts 16°
2026-04-26 19:31 59.79776 30.26510 83 ft 13 kts 17°
2026-04-26 19:31 59.79857 30.26551 81 ft 10 kts 13°
2026-04-26 19:32 59.79892 30.26610 83 ft 6 kts 118°
2026-04-26 19:32 59.79880 30.26675 82 ft 5 kts 103°
2026-04-26 19:32 59.79872 30.26732 80 ft 3 kts 105°
2026-04-26 19:32 59.79872 30.26734 80 ft 0 kts 105°